TSIOLKOVSKY-RYAZAN 2 (*) (53313 NORAD) Tracking and Keplerian Element Data

This shows tracking and keplerian element data for the satellite.

Feedback or suggestion? Click here.




ElementValue
Catalog53313
NameTSIOLKOVSKY-RYAZAN 2 (*)
Epoch Orbit1053
Epoch Day270.07161869
Epoch Year2022
RAAN190.5954
Inclination51.64
Eccentricity0.0001227
Argument of Perigee217.1283
Mean Anonmoly142.9624
Mean Motion15.55567176
Decay Rate0.000753
L11 53313U 98067TY 22270.07161869 .00075300 00000+0 10758-2 0 9993
L22 53313 51.6400 190.5954 0001227 217.1283 142.9624 15.55567176 10537

Live tracking and technical data element details for TSIOLKOVSKY-RYAZAN 2 (*) (NORAD 53313). TSIOLKOVSKY-RYAZAN 2 (*) can be tracked NOW for your location showing map with azimuth and elevation plus other details from your city location.

Track the satellite on the map from your city or location and see movement details for azimuth, elevation, latitude, longitude, range, height, and movement on the map or in text.







IsCatalogInMostPopularTable: catalog: 53313, numindb: 3
Update: records affected: 1



GetName: 53313 TSIOLKOVSKY-RYAZAN 2 (*)

Hit Count: updated at: Thu, 29 Sep 2022 11:04:08 GMT